time, beta470, beta532, beta650
yyyy/mm/dd HH:MM:SS.fff, counts, counts, counts
2023/06/10 03:00:03.215, 131, 180, 123
2023/06/10 03:00:04.351, 130, 189, 126
2023/06/10 03:00:05.487, 127, 169, 127
2023/06/10 03:00:06.607, 129, 170, 127
2023/06/10 03:00:07.743, 124, 178, 144
2023/06/10 03:00:08.879, 124, 167, 128
2023/06/10 03:00:09.999, 146, 174, 128
2023/06/10 03:00:11.135, 129, 170, 129
2023/06/10 03:00:12.271, 131, 175, 129
2023/06/10 03:00:13.390, 133, 175, 129
2023/06/10 03:00:14.527, 130, 169, 127
2023/06/10 03:00:15.647, 121, 172, 132
2023/06/10 03:00:16.783, 127, 177, 132
2023/06/10 03:00:17.919, 125, 174, 131
2023/06/10 03:00:19.038, 129, 173, 129
2023/06/10 03:00:20.174, 130, 177, 125
2023/06/10 03:00:21.310, 134, 175, 129
2023/06/10 03:00:22.430, 134, 175, 129
2023/06/10 03:00:23.566, 130, 217, 135
2023/06/10 03:00:24.702, 131, 204, 140
2023/06/10 03:00:25.822, 136, 176, 136
2023/06/10 03:00:26.958, 133, 186, 125
2023/06/10 03:00:28.094, 127, 183, 128
2023/06/10 03:00:29.214, 124, 174, 124
2023/06/10 03:00:30.350, 122, 170, 123
2023/06/10 03:00:31.486, 137, 185, 127
2023/06/10 03:00:32.605, 129, 185, 129
2023/06/10 03:00:33.741, 130, 179, 127
2023/06/10 03:00:34.861, 123, 175, 129
2023/06/10 03:00:35.997, 126, 171, 123
2023/06/10 03:00:37.133, 128, 170, 132
2023/06/10 03:00:38.253, 133, 172, 207
2023/06/10 03:00:39.389, 131, 166, 145
2023/06/10 03:00:40.525, 129, 171, 128
2023/06/10 03:00:41.645, 141, 169, 124
2023/06/10 03:00:42.781, 148, 177, 121
2023/06/10 03:00:43.917, 179, 193, 121
2023/06/10 03:00:45.037, 138, 193, 122
2023/06/10 03:00:46.172, 142, 175, 119
2023/06/10 03:00:47.309, 138, 178, 130
2023/06/10 03:00:48.428, 146, 176, 132
2023/06/10 03:00:49.565, 152, 177, 127
2023/06/10 03:00:50.700, 152, 180, 130
2023/06/10 03:00:51.820, 149, 192, 130
2023/06/10 03:00:52.956, 143, 189, 130
2023/06/10 03:00:54.092, 133, 182, 135
2023/06/10 03:00:55.212, 134, 174, 130
2023/06/10 03:00:56.348, 132, 180, 125
2023/06/10 03:00:57.484, 130, 178, 130
2023/06/10 03:00:58.604, 141, 176, 133
2023/06/10 03:00:59.740, 146, 175, 130
2023/06/10 03:01:00.876, 133, 172, 129
2023/06/10 03:01:01.996, 131, 191, 134
2023/06/10 03:01:03.132, 130, 188, 129
2023/06/10 03:01:04.251, 127, 188, 123
2023/06/10 03:01:05.387, 131, 183, 128
2023/06/10 03:01:06.523, 128, 185, 131
2023/06/10 03:01:07.643, 133, 190, 127
2023/06/10 03:01:08.779, 136, 183, 131
2023/06/10 03:01:09.915, 128, 194, 132
2023/06/10 03:01:11.035, 135, 189, 134
2023/06/10 03:01:12.171, 135, 190, 134
2023/06/10 03:01:13.307, 134, 190, 136
2023/06/10 03:01:14.426, 131, 185, 136
2023/06/10 03:01:15.563, 130, 183, 134
2023/06/10 03:01:16.699, 133, 178, 131
2023/06/10 03:01:17.819, 128, 182, 128
2023/06/10 03:01:18.955, 134, 209, 134
2023/06/10 03:01:20.090, 128, 192, 138
2023/06/10 03:01:21.210, 138, 186, 135
2023/06/10 03:01:22.346, 138, 186, 134
2023/06/10 03:01:23.482, 133, 189, 137
2023/06/10 03:01:24.602, 129, 191, 148
2023/06/10 03:01:25.738, 124, 192, 138
2023/06/10 03:01:26.874, 140, 203, 133
2023/06/10 03:01:27.994, 129, 212, 133
2023/06/10 03:01:29.129, 133, 209, 136
2023/06/10 03:01:30.250, 129, 246, 148
2023/06/10 03:01:31.386, 133, 184, 136
2023/06/10 03:01:32.522, 140, 188, 134
2023/06/10 03:01:33.642, 164, 190, 135
2023/06/10 03:01:34.778, 127, 188, 131
2023/06/10 03:01:35.914, 135, 193, 135
2023/06/10 03:01:37.034, 259, 204, 137
2023/06/10 03:01:38.170, 144, 197, 138
2023/06/10 03:01:39.305, 138, 198, 132
2023/06/10 03:01:40.425, 140, 197, 132
2023/06/10 03:01:41.561, 144, 200, 137
2023/06/10 03:01:42.697, 137, 181, 137
2023/06/10 03:01:43.817, 136, 180, 138
2023/06/10 03:01:44.953, 135, 188, 133
2023/06/10 03:01:46.089, 140, 195, 137
2023/06/10 03:01:47.209, 136, 192, 131
2023/06/10 03:01:48.345, 126, 195, 131
2023/06/10 03:01:49.481, 125, 201, 132
2023/06/10 03:01:50.601, 122, 196, 130
2023/06/10 03:01:51.737, 131, 181, 132
2023/06/10 03:01:52.857, 140, 184, 136
2023/06/10 03:01:53.993, 140, 191, 134
2023/06/10 03:01:55.128, 139, 198, 135
2023/06/10 03:01:56.248, 140, 189, 133
2023/06/10 03:01:57.384, 136, 192, 133
2023/06/10 03:01:58.520, 133, 199, 132
2023/06/10 03:01:59.640, 128, 190, 134
2023/06/10 03:02:00.776, 130, 182, 133
2023/06/10 03:02:01.912, 128, 180, 137
2023/06/10 03:02:03.032, 140, 184, 136
2023/06/10 03:02:04.168, 133, 179, 128
2023/06/10 03:02:05.304, 131, 186, 132
2023/06/10 03:02:06.423, 133, 182, 128
2023/06/10 03:02:07.560, 129, 180, 131
2023/06/10 03:02:08.695, 129, 182, 130
2023/06/10 03:02:09.815, 133, 185, 126
2023/06/10 03:02:10.951, 132, 185, 126
2023/06/10 03:02:12.087, 132, 187, 131
2023/06/10 03:02:13.207, 131, 188, 134
2023/06/10 03:02:14.343, 121, 185, 134
2023/06/10 03:02:15.480, 121, 185, 139
2023/06/10 03:02:16.599, 153, 183, 129
2023/06/10 03:02:17.734, 129, 181, 131
2023/06/10 03:02:18.871, 137, 184, 130
2023/06/10 03:02:19.991, 138, 188, 131
2023/06/10 03:02:21.126, 134, 184, 129
2023/06/10 03:02:22.247, 126, 179, 131
2023/06/10 03:02:23.383, 127, 180, 124
2023/06/10 03:02:24.519, 130, 221, 128
2023/06/10 03:02:25.638, 129, 188, 123
2023/06/10 03:02:26.774, 127, 179, 132
2023/06/10 03:02:27.910, 126, 184, 129
2023/06/10 03:02:29.030, 132, 187, 126
2023/06/10 03:02:30.166, 124, 187, 127
2023/06/10 03:02:31.302, 126, 178, 129
2023/06/10 03:02:32.422, 125, 188, 125
2023/06/10 03:02:33.558, 128, 184, 127
2023/06/10 03:02:34.694, 125, 178, 130
2023/06/10 03:02:35.813, 122, 179, 127
2023/06/10 03:02:36.950, 131, 177, 146
2023/06/10 03:02:38.070, 126, 185, 126
2023/06/10 03:02:39.206, 122, 178, 126
2023/06/10 03:02:40.341, 122, 175, 124
2023/06/10 03:02:41.461, 126, 184, 127
2023/06/10 03:02:42.597, 124, 176, 127
2023/06/10 03:02:43.733, 123, 167, 122
2023/06/10 03:02:44.853, 122, 174, 127
2023/06/10 03:02:45.989, 121, 176, 125
2023/06/10 03:02:47.125, 124, 171, 125
2023/06/10 03:02:48.245, 129, 173, 126
2023/06/10 03:02:49.381, 128, 176, 127
2023/06/10 03:02:50.517, 129, 170, 127
2023/06/10 03:02:51.637, 128, 171, 127
2023/06/10 03:02:52.773, 127, 167, 128
2023/06/10 03:02:53.909, 131, 172, 126
2023/06/10 03:02:55.029, 123, 180, 121
2023/06/10 03:02:56.165, 124, 183, 122
2023/06/10 03:02:57.301, 115, 173, 130
2023/06/10 03:02:58.420, 124, 171, 139
2023/06/10 03:02:59.556, 129, 171, 158
2023/06/10 03:03:00.692, 132, 179, 147
2023/06/10 03:03:01.812, 130, 169, 136
2023/06/10 03:03:02.948, 129, 172, 149
2023/06/10 03:03:04.084, 128, 166, 139
2023/06/10 03:03:05.204, 130, 164, 122
2023/06/10 03:03:06.340, 117, 165, 121
2023/06/10 03:03:07.476, 118, 165, 123
2023/06/10 03:03:08.596, 119, 361, 124
2023/06/10 03:03:09.732, 124, 160, 127
2023/06/10 03:03:10.852, 129, 162, 126
2023/06/10 03:03:11.988, 120, 166, 121
2023/06/10 03:03:13.124, 121, 169, 118
2023/06/10 03:03:14.243, 122, 163, 122
2023/06/10 03:03:15.378, 122, 159, 122
2023/06/10 03:03:16.515, 115, 164, 120
2023/06/10 03:03:17.635, 118, 169, 124
2023/06/10 03:03:18.771, 119, 169, 121
2023/06/10 03:03:19.906, 122, 168, 134
2023/06/10 03:03:21.027, 125, 164, 118
2023/06/10 03:03:22.163, 123, 165, 123
2023/06/10 03:03:23.299, 128, 170, 124
2023/06/10 03:03:24.419, 122, 170, 117
2023/06/10 03:03:25.555, 128, 166, 117
2023/06/10 03:03:26.691, 124, 220, 122
2023/06/10 03:03:27.811, 129, 190, 124
2023/06/10 03:03:28.946, 121, 162, 130
2023/06/10 03:03:30.067, 117, 160, 131
2023/06/10 03:03:31.202, 123, 156, 128
2023/06/10 03:03:32.338, 122, 163, 119
2023/06/10 03:03:33.458, 123, 170, 119
2023/06/10 03:03:34.594, 123, 163, 120
2023/06/10 03:03:35.730, 120, 160, 120
2023/06/10 03:03:36.850, 113, 159, 126
2023/06/10 03:03:37.985, 118, 163, 124
2023/06/10 03:03:39.122, 121, 161, 123
2023/06/10 03:03:40.242, 119, 159, 125
2023/06/10 03:03:41.378, 115, 161, 121
2023/06/10 03:03:42.514, 116, 167, 117
2023/06/10 03:03:43.634, 116, 155, 118
2023/06/10 03:03:44.769, 121, 164, 120
2023/06/10 03:03:45.905, 123, 163, 122
2023/06/10 03:03:47.025, 126, 174, 121
2023/06/10 03:03:48.161, 127, 157, 121
2023/06/10 03:03:49.297, 122, 160, 125
2023/06/10 03:03:50.417, 123, 157, 123
2023/06/10 03:03:51.553, 124, 164, 127
2023/06/10 03:03:52.689, 118, 162, 119
2023/06/10 03:03:53.809, 119, 162, 116
2023/06/10 03:03:54.945, 116, 158, 118
2023/06/10 03:03:56.065, 115, 159, 121
2023/06/10 03:03:57.201, 116, 154, 116
2023/06/10 03:03:58.337, 121, 157, 118
2023/06/10 03:03:59.457, 119, 157, 121
2023/06/10 03:04:00.592, 120, 164, 119
2023/06/10 03:04:01.728, 119, 161, 117
2023/06/10 03:04:02.848, 117, 153, 119
2023/06/10 03:04:03.984, 125, 159, 119
2023/06/10 03:04:05.120, 122, 159, 115
2023/06/10 03:04:06.240, 122, 151, 114
2023/06/10 03:04:07.376, 115, 153, 117
2023/06/10 03:04:08.512, 113, 152, 116
2023/06/10 03:04:09.632, 120, 145, 117
2023/06/10 03:04:10.768, 118, 147, 111
2023/06/10 03:04:11.904, 113, 148, 125
2023/06/10 03:04:13.024, 112, 147, 115
2023/06/10 03:04:14.160, 118, 146, 116
2023/06/10 03:04:15.296, 116, 148, 116
2023/06/10 03:04:16.416, 115, 150, 120
2023/06/10 03:04:17.552, 117, 146, 117
2023/06/10 03:04:18.687, 119, 151, 115
2023/06/10 03:04:19.807, 119, 156, 114
2023/06/10 03:04:20.943, 119, 159, 114
2023/06/10 03:04:22.078, 120, 151, 119
2023/06/10 03:04:23.199, 116, 155, 115
2023/06/10 03:04:24.335, 114, 152, 116
2023/06/10 03:04:25.454, 112, 154, 115
2023/06/10 03:04:26.590, 111, 154, 115
2023/06/10 03:04:27.727, 116, 151, 115
2023/06/10 03:04:28.846, 118, 159, 112
2023/06/10 03:04:29.983, 120, 156, 122
2023/06/10 03:04:31.119, 116, 148, 112
2023/06/10 03:04:32.238, 111, 147, 117
2023/06/10 03:04:33.374, 117, 148, 114
2023/06/10 03:04:34.510, 114, 150, 114
2023/06/10 03:04:35.630, 114, 150, 113
2023/06/10 03:04:36.766, 116, 151, 111
2023/06/10 03:04:37.885, 114, 146, 117
2023/06/10 03:04:39.022, 107, 141, 112
2023/06/10 03:04:40.158, 113, 139, 112
2023/06/10 03:04:41.278, 111, 145, 112
2023/06/10 03:04:42.413, 111, 149, 110
2023/06/10 03:04:43.550, 113, 142, 111
2023/06/10 03:04:44.669, 117, 142, 115
2023/06/10 03:04:45.806, 110, 145, 112
2023/06/10 03:04:46.942, 108, 144, 110
2023/06/10 03:04:48.062, 109, 155, 111
2023/06/10 03:04:49.197, 108, 166, 111
2023/06/10 03:04:50.333, 108, 139, 113
2023/06/10 03:04:51.453, 113, 148, 115
2023/06/10 03:04:52.589, 110, 151, 112
2023/06/10 03:04:53.725, 114, 152, 110
2023/06/10 03:04:54.845, 113, 144, 115
2023/06/10 03:04:55.981, 110, 147, 108
2023/06/10 03:04:57.117, 111, 146, 113
2023/06/10 03:04:58.236, 115, 149, 111
2023/06/10 03:04:59.373, 109, 148, 114
2023/06/10 03:05:00.509, 109, 142, 112
2023/06/10 03:05:01.629, 103, 145, 114
2023/06/10 03:05:02.765, 109, 138, 115
2023/06/10 03:05:03.900, 116, 141, 116
2023/06/10 03:05:05.020, 114, 147, 114
2023/06/10 03:05:06.156, 117, 155, 114
2023/06/10 03:05:07.292, 105, 154, 113
2023/06/10 03:05:08.412, 108, 151, 114
2023/06/10 03:05:09.549, 111, 144, 112
2023/06/10 03:05:10.684, 113, 144, 109
2023/06/10 03:05:11.804, 111, 190, 112
2023/06/10 03:05:12.940, 110, 161, 117
2023/06/10 03:05:14.060, 114, 142, 114
2023/06/10 03:05:15.195, 113, 142, 109
2023/06/10 03:05:16.331, 111, 137, 109
2023/06/10 03:05:17.452, 110, 139, 110
2023/06/10 03:05:18.588, 111, 144, 109
2023/06/10 03:05:19.723, 104, 143, 108
2023/06/10 03:05:20.844, 108, 145, 112
2023/06/10 03:05:21.979, 108, 148, 110
2023/06/10 03:05:23.115, 106, 149, 114
2023/06/10 03:05:24.235, 109, 146, 126
2023/06/10 03:05:25.371, 109, 142, 127
2023/06/10 03:05:26.507, 112, 143, 146
2023/06/10 03:05:27.627, 112, 149, 146
2023/06/10 03:05:28.762, 107, 144, 126
2023/06/10 03:05:29.899, 106, 141, 117
2023/06/10 03:05:31.019, 114, 140, 112
2023/06/10 03:05:32.155, 114, 142, 111
2023/06/10 03:05:33.275, 109, 139, 110
2023/06/10 03:05:34.410, 103, 145, 112
2023/06/10 03:05:35.547, 105, 141, 112
2023/06/10 03:05:36.666, 105, 141, 113
2023/06/10 03:05:37.802, 108, 141, 107
2023/06/10 03:05:38.938, 108, 144, 110
2023/06/10 03:05:40.058, 108, 142, 109
2023/06/10 03:05:41.194, 106, 140, 108
2023/06/10 03:05:42.330, 102, 139, 109
2023/06/10 03:05:43.450, 106, 141, 128
2023/06/10 03:05:44.586, 105, 142, 105
2023/06/10 03:05:45.722, 105, 142, 109
2023/06/10 03:05:46.842, 107, 148, 107
2023/06/10 03:05:47.978, 109, 140, 107
2023/06/10 03:05:49.114, 107, 138, 108
2023/06/10 03:05:50.234, 107, 139, 117
2023/06/10 03:05:51.370, 108, 148, 125
2023/06/10 03:05:52.505, 106, 146, 109
2023/06/10 03:05:53.625, 105, 141, 108
2023/06/10 03:05:54.761, 106, 138, 107
2023/06/10 03:05:55.897, 106, 142, 106
2023/06/10 03:05:57.017, 107, 140, 111
2023/06/10 03:05:58.153, 114, 141, 111
2023/06/10 03:05:59.289, 106, 137, 108
2023/06/10 03:06:00.409, 106, 135, 107
2023/06/10 03:06:01.545, 103, 136, 113
2023/06/10 03:06:02.665, 111, 139, 127
2023/06/10 03:06:03.801, 105, 145, 111
2023/06/10 03:06:04.937, 103, 135, 107
2023/06/10 03:06:06.057, 109, 136, 109
2023/06/10 03:06:07.193, 104, 143, 106
2023/06/10 03:06:08.328, 101, 132, 110
2023/06/10 03:06:09.448, 103, 132, 108
2023/06/10 03:06:10.584, 107, 131, 107
2023/06/10 03:06:11.720, 108, 134, 107
2023/06/10 03:06:12.840, 112, 133, 105
2023/06/10 03:06:13.976, 111, 141, 105
2023/06/10 03:06:15.112, 105, 139, 105
2023/06/10 03:06:16.232, 104, 136, 109
2023/06/10 03:06:17.367, 104, 133, 106
2023/06/10 03:06:18.504, 105, 136, 108
2023/06/10 03:06:19.624, 103, 134, 106
2023/06/10 03:06:20.760, 103, 130, 106
2023/06/10 03:06:21.895, 104, 132, 105
2023/06/10 03:06:23.016, 104, 131, 105
2023/06/10 03:06:24.152, 106, 132, 103
2023/06/10 03:06:25.287, 102, 139, 103
2023/06/10 03:06:26.407, 103, 145, 105
2023/06/10 03:06:27.543, 101, 139, 109
2023/06/10 03:06:28.664, 104, 135, 107
2023/06/10 03:06:29.799, 105, 133, 107
2023/06/10 03:06:30.935, 104, 138, 108
2023/06/10 03:06:32.055, 102, 134, 107
2023/06/10 03:06:33.191, 104, 136, 105
2023/06/10 03:06:34.326, 103, 138, 110
2023/06/10 03:06:35.447, 102, 130, 108
2023/06/10 03:06:36.583, 104, 130, 104
2023/06/10 03:06:37.719, 101, 134, 107
2023/06/10 03:06:38.839, 100, 132, 104
2023/06/10 03:06:39.975, 104, 128, 106
2023/06/10 03:06:41.110, 100, 132, 107
2023/06/10 03:06:42.230, 100, 130, 106
2023/06/10 03:06:43.367, 101, 131, 104
2023/06/10 03:06:44.502, 101, 130, 104
2023/06/10 03:06:45.622, 101, 128, 104
2023/06/10 03:06:46.758, 101, 128, 108
2023/06/10 03:06:47.878, 96, 128, 105
2023/06/10 03:06:49.014, 101, 127, 104
2023/06/10 03:06:50.150, 101, 129, 102
2023/06/10 03:06:51.270, 101, 127, 105
2023/06/10 03:06:52.406, 101, 128, 103
2023/06/10 03:06:53.542, 101, 135, 102
2023/06/10 03:06:54.662, 105, 136, 102
2023/06/10 03:06:55.798, 103, 133, 102
2023/06/10 03:06:56.933, 106, 133, 110
2023/06/10 03:06:58.053, 102, 130, 106
2023/06/10 03:06:59.189, 99, 129, 105
2023/06/10 03:07:00.325, 97, 129, 104
2023/06/10 03:07:01.445, 100, 132, 108
2023/06/10 03:07:02.581, 99, 131, 106
2023/06/10 03:07:03.701, 97, 129, 105
2023/06/10 03:07:04.837, 102, 127, 103
2023/06/10 03:07:05.973, 101, 130, 107
2023/06/10 03:07:07.093, 102, 133, 111
2023/06/10 03:07:08.229, 99, 130, 111
2023/06/10 03:07:09.365, 118, 127, 110
2023/06/10 03:07:10.484, 108, 126, 112
2023/06/10 03:07:11.620, 101, 125, 110
2023/06/10 03:07:12.757, 99, 125, 111
2023/06/10 03:07:13.876, 99, 130, 117
2023/06/10 03:07:15.012, 97, 127, 103
2023/06/10 03:07:16.132, 98, 128, 104
2023/06/10 03:07:17.269, 100, 142, 110
2023/06/10 03:07:18.404, 100, 127, 102
2023/06/10 03:07:19.524, 98, 126, 106
2023/06/10 03:07:20.660, 98, 126, 106
2023/06/10 03:07:21.796, 101, 126, 107
2023/06/10 03:07:22.916, 99, 127, 104
2023/06/10 03:07:24.052, 100, 126, 103
2023/06/10 03:07:25.172, 102, 124, 102
2023/06/10 03:07:26.308, 104, 127, 102
2023/06/10 03:07:27.444, 101, 129, 105
2023/06/10 03:07:28.563, 101, 130, 104
2023/06/10 03:07:29.699, 99, 131, 104
2023/06/10 03:07:30.836, 100, 128, 102
2023/06/10 03:07:31.955, 100, 125, 105
2023/06/10 03:07:33.091, 100, 127, 106
2023/06/10 03:07:34.211, 100, 130, 109
2023/06/10 03:07:35.347, 99, 131, 104
2023/06/10 03:07:36.483, 99, 133, 104
2023/06/10 03:07:37.603, 98, 129, 105
2023/06/10 03:07:38.739, 97, 125, 108
2023/06/10 03:07:39.875, 99, 127, 103
2023/06/10 03:07:40.995, 103, 125, 104
2023/06/10 03:07:42.131, 102, 128, 105
2023/06/10 03:07:43.251, 102, 124, 108
2023/06/10 03:07:44.387, 98, 125, 104
2023/06/10 03:07:45.522, 96, 122, 104
2023/06/10 03:07:46.642, 98, 124, 104
2023/06/10 03:07:47.778, 100, 127, 104
2023/06/10 03:07:48.914, 99, 124, 103
2023/06/10 03:07:50.034, 97, 124, 101
2023/06/10 03:07:51.170, 100, 129, 98
2023/06/10 03:07:52.290, 97, 127, 103
2023/06/10 03:07:53.425, 98, 125, 101
2023/06/10 03:07:54.562, 100, 124, 103
2023/06/10 03:07:55.682, 99, 126, 101
2023/06/10 03:07:56.818, 98, 123, 103
2023/06/10 03:07:57.938, 97, 130, 104
2023/06/10 03:07:59.074, 96, 125, 99
2023/06/10 03:08:00.209, 99, 125, 104
2023/06/10 03:08:01.329, 99, 130, 104
2023/06/10 03:08:02.465, 98, 124, 103
2023/06/10 03:08:03.585, 99, 126, 104
2023/06/10 03:08:04.721, 97, 125, 103
2023/06/10 03:08:05.857, 100, 127, 106
2023/06/10 03:08:06.977, 99, 126, 101
2023/06/10 03:08:08.113, 99, 125, 101
2023/06/10 03:08:09.249, 101, 128, 102
2023/06/10 03:08:10.369, 97, 123, 100
2023/06/10 03:08:11.505, 97, 124, 99
2023/06/10 03:08:12.625, 97, 123, 104
2023/06/10 03:08:13.760, 97, 122, 101
2023/06/10 03:08:14.880, 99, 123, 104
2023/06/10 03:08:16.017, 96, 126, 102
2023/06/10 03:08:17.152, 99, 122, 101
2023/06/10 03:08:18.272, 96, 124, 103
2023/06/10 03:08:19.408, 96, 128, 100
2023/06/10 03:08:20.528, 98, 124, 99
2023/06/10 03:08:21.664, 96, 124, 101
2023/06/10 03:08:22.800, 95, 126, 101
2023/06/10 03:08:23.920, 97, 124, 100
2023/06/10 03:08:25.056, 95, 123, 101
2023/06/10 03:08:26.176, 95, 123, 102
2023/06/10 03:08:27.312, 96, 119, 101
2023/06/10 03:08:28.448, 95, 128, 99
2023/06/10 03:08:29.568, 98, 125, 104
2023/06/10 03:08:30.704, 95, 123, 106
2023/06/10 03:08:31.824, 96, 127, 103
2023/06/10 03:08:32.959, 98, 125, 104
2023/06/10 03:08:34.079, 96, 130, 102
2023/06/10 03:08:35.215, 93, 128, 99
2023/06/10 03:08:36.351, 96, 126, 103
2023/06/10 03:08:37.471, 95, 124, 103
2023/06/10 03:08:38.607, 96, 120, 101
2023/06/10 03:08:39.727, 97, 126, 100
2023/06/10 03:08:40.863, 95, 124, 101
2023/06/10 03:08:41.999, 95, 124, 99
2023/06/10 03:08:43.119, 94, 122, 98
2023/06/10 03:08:44.255, 94, 119, 100
2023/06/10 03:08:45.375, 96, 122, 101
2023/06/10 03:08:46.511, 94, 126, 103
2023/06/10 03:08:47.647, 95, 123, 98
2023/06/10 03:08:48.766, 96, 121, 99
2023/06/10 03:08:49.902, 98, 122, 116
2023/06/10 03:08:51.022, 100, 121, 97
2023/06/10 03:08:52.158, 97, 122, 102
2023/06/10 03:08:53.278, 97, 123, 98
2023/06/10 03:08:54.414, 97, 127, 102
2023/06/10 03:08:55.550, 96, 122, 101
2023/06/10 03:08:56.670, 97, 130, 102
2023/06/10 03:08:57.805, 95, 140, 102
2023/06/10 03:08:58.926, 97, 136, 100
2023/06/10 03:09:00.061, 98, 127, 99
2023/06/10 03:09:01.198, 97, 123, 99
2023/06/10 03:09:02.318, 100, 120, 99
2023/06/10 03:09:03.453, 96, 125, 98
2023/06/10 03:09:04.573, 99, 125, 97
2023/06/10 03:09:05.709, 95, 123, 102
2023/06/10 03:09:06.829, 98, 125, 100
2023/06/10 03:09:07.965, 96, 123, 102
2023/06/10 03:09:09.102, 95, 121, 100
2023/06/10 03:09:10.222, 95, 126, 102
2023/06/10 03:09:11.357, 95, 121, 103
2023/06/10 03:09:12.493, 94, 120, 101
2023/06/10 03:09:13.613, 94, 122, 100
2023/06/10 03:09:14.749, 94, 119, 100
2023/06/10 03:09:15.869, 94, 120, 100
2023/06/10 03:09:17.005, 96, 122, 100
2023/06/10 03:09:18.140, 91, 122, 101
2023/06/10 03:09:19.261, 100, 124, 102
2023/06/10 03:09:20.396, 96, 121, 98
2023/06/10 03:09:21.516, 97, 119, 98
2023/06/10 03:09:22.652, 94, 121, 100
2023/06/10 03:09:23.772, 96, 119, 99
2023/06/10 03:09:24.908, 97, 120, 99
2023/06/10 03:09:26.044, 93, 124, 100
2023/06/10 03:09:27.164, 95, 120, 97
2023/06/10 03:09:28.300, 95, 118, 99
2023/06/10 03:09:29.420, 93, 118, 98
2023/06/10 03:09:30.556, 96, 121, 96
2023/06/10 03:09:31.676, 95, 123, 98
2023/06/10 03:09:32.811, 94, 121, 100
2023/06/10 03:09:33.932, 98, 123, 100
2023/06/10 03:09:35.068, 96, 127, 101
2023/06/10 03:09:36.204, 97, 123, 98
2023/06/10 03:09:37.323, 97, 118, 99
2023/06/10 03:09:38.459, 95, 123, 100
2023/06/10 03:09:39.579, 94, 123, 94
2023/06/10 03:09:40.715, 93, 120, 97
2023/06/10 03:09:41.835, 90, 119, 97
2023/06/10 03:09:42.971, 99, 122, 100
2023/06/10 03:09:44.107, 96, 122, 97
2023/06/10 03:09:45.227, 93, 124, 97
2023/06/10 03:09:46.363, 97, 123, 98
2023/06/10 03:09:47.483, 93, 122, 100
2023/06/10 03:09:48.619, 93, 121, 97
2023/06/10 03:09:49.739, 94, 121, 97
2023/06/10 03:09:50.874, 95, 119, 97
2023/06/10 03:09:51.995, 94, 115, 97
2023/06/10 03:09:53.130, 96, 119, 98
2023/06/10 03:09:54.266, 92, 136, 100
2023/06/10 03:09:55.387, 97, 156, 98
2023/06/10 03:09:56.522, 94, 123, 99
2023/06/10 03:09:57.642, 94, 121, 103
2023/06/10 03:09:58.778, 94, 117, 114
2023/06/10 03:09:59.914, 94, 120, 101
2023/06/10 03:10:01.034, 93, 117, 100
2023/06/10 03:10:02.170, 95, 117, 99
2023/06/10 03:10:03.290, 102, 121, 99
2023/06/10 03:10:04.426, 96, 115, 98
2023/06/10 03:10:05.546, 93, 119, 94
2023/06/10 03:10:06.682, 92, 121, 96
2023/06/10 03:10:07.818, 96, 125, 93
2023/06/10 03:10:08.937, 93, 119, 98
2023/06/10 03:10:10.073, 95, 119, 98
2023/06/10 03:10:11.193, 96, 117, 99
2023/06/10 03:10:12.329, 91, 118, 97
2023/06/10 03:10:13.449, 92, 118, 99
2023/06/10 03:10:14.585, 91, 118, 102
2023/06/10 03:10:15.705, 95, 119, 105
2023/06/10 03:10:16.841, 93, 117, 98
2023/06/10 03:10:17.977, 92, 117, 98
2023/06/10 03:10:19.097, 93, 118, 99
2023/06/10 03:10:20.233, 93, 117, 97
2023/06/10 03:10:21.353, 95, 116, 96
2023/06/10 03:10:22.489, 92, 117, 98
2023/06/10 03:10:23.608, 94, 119, 97
2023/06/10 03:10:24.744, 95, 119, 97
2023/06/10 03:10:25.864, 91, 115, 99
2023/06/10 03:10:27.000, 95, 116, 97
2023/06/10 03:10:28.120, 92, 115, 94
2023/06/10 03:10:29.256, 94, 114, 95
2023/06/10 03:10:30.392, 92, 121, 96
2023/06/10 03:10:31.512, 93, 121, 98
2023/06/10 03:10:32.648, 92, 119, 99
2023/06/10 03:10:33.768, 92, 120, 98
2023/06/10 03:10:34.904, 94, 116, 96
2023/06/10 03:10:36.024, 92, 118, 97
2023/06/10 03:10:37.160, 95, 119, 99
2023/06/10 03:10:38.280, 93, 118, 95
2023/06/10 03:10:39.416, 92, 117, 98
2023/06/10 03:10:40.551, 94, 115, 98
2023/06/10 03:10:41.671, 98, 115, 95
2023/06/10 03:10:42.807, 94, 114, 95
2023/06/10 03:10:43.927, 94, 116, 96
2023/06/10 03:10:45.063, 95, 116, 96
2023/06/10 03:10:46.183, 91, 115, 98
2023/06/10 03:10:47.319, 93, 113, 96
2023/06/10 03:10:48.439, 91, 117, 100
2023/06/10 03:10:49.575, 92, 115, 99
2023/06/10 03:10:50.710, 92, 113, 99
2023/06/10 03:10:51.831, 92, 117, 94
2023/06/10 03:10:52.967, 92, 117, 99
2023/06/10 03:10:54.087, 92, 119, 95
2023/06/10 03:10:55.223, 91, 119, 97
2023/06/10 03:10:56.343, 92, 113, 95
2023/06/10 03:10:57.478, 92, 117, 100
2023/06/10 03:10:58.598, 91, 116, 97
2023/06/10 03:10:59.734, 93, 118, 96
2023/06/10 03:11:00.870, 92, 113, 96
2023/06/10 03:11:01.990, 92, 115, 95
2023/06/10 03:11:03.126, 92, 119, 96
2023/06/10 03:11:04.246, 92, 118, 100
2023/06/10 03:11:05.382, 91, 114, 99
2023/06/10 03:11:06.502, 95, 115, 94
2023/06/10 03:11:07.637, 93, 117, 96
2023/06/10 03:11:08.774, 90, 115, 98
2023/06/10 03:11:09.894, 92, 116, 96
2023/06/10 03:11:11.030, 91, 119, 97
2023/06/10 03:11:12.149, 94, 115, 96
2023/06/10 03:11:13.285, 93, 117, 98
2023/06/10 03:11:14.405, 91, 117, 95
2023/06/10 03:11:15.541, 92, 117, 98
2023/06/10 03:11:16.661, 92, 121, 100
2023/06/10 03:11:17.797, 90, 123, 96
2023/06/10 03:11:18.933, 94, 121, 99
2023/06/10 03:11:20.053, 91, 123, 94
2023/06/10 03:11:21.188, 93, 118, 97
2023/06/10 03:11:22.309, 90, 116, 98
2023/06/10 03:11:23.445, 92, 116, 98
2023/06/10 03:11:24.565, 90, 119, 100
2023/06/10 03:11:25.700, 97, 117, 98